TimeCDT,TemperatureF,Dew PointF,Humidity,Sea Level PressureIn,VisibilityMPH,Wind Direction,Wind SpeedMPH,Gust SpeedMPH,PrecipitationIn,Events,Conditions,WindDirDegrees,DateUTC
12:15 AM,55.4,53.6,94,30.21,10.0,Calm,Calm,-,N/A,,Clear,0,2013-08-18 05:15:00
12:35 AM,53.6,51.8,94,30.20,10.0,Calm,Calm,-,N/A,,Clear,0,2013-08-18 05:35:00
12:55 AM,51.8,50.0,94,30.20,10.0,Calm,Calm,-,N/A,,Clear,0,2013-08-18 05:55:00
1:15 AM,53.6,51.8,94,30.20,10.0,Calm,Calm,-,N/A,,Clear,0,2013-08-18 06:15:00
1:35 AM,53.6,51.8,94,30.21,10.0,Calm,Calm,-,N/A,,Clear,0,2013-08-18 06:35:00
1:55 AM,53.6,51.8,94,30.21,10.0,Calm,Calm,-,N/A,,Clear,0,2013-08-18 06:55:00
2:15 AM,51.8,51.8,100,30.20,10.0,Calm,Calm,-,N/A,,Clear,0,2013-08-18 07:15:00
2:35 AM,51.8,50.0,94,30.20,10.0,South,3.5,-,N/A,,Clear,180,2013-08-18 07:35:00
2:55 AM,55.4,51.8,88,30.20,10.0,SSW,3.5,-,N/A,,Clear,210,2013-08-18 07:55:00
3:15 AM,55.4,51.8,88,30.20,10.0,Calm,Calm,-,N/A,,Clear,0,2013-08-18 08:15:00
3:35 AM,53.6,51.8,94,30.21,10.0,Calm,Calm,-,N/A,,Clear,0,2013-08-18 08:35:00
3:55 AM,51.8,50.0,94,30.21,10.0,Calm,Calm,-,N/A,,Clear,0,2013-08-18 08:55:00
4:15 AM,50.0,50.0,100,30.21,10.0,Calm,Calm,-,N/A,,Clear,0,2013-08-18 09:15:00
4:35 AM,51.8,50.0,94,30.21,10.0,Calm,Calm,-,N/A,,Clear,0,2013-08-18 09:35:00
4:55 AM,51.8,50.0,94,30.22,10.0,Calm,Calm,-,N/A,,Clear,0,2013-08-18 09:55:00
5:15 AM,51.8,50.0,94,30.22,7.0,Calm,Calm,-,N/A,,Clear,0,2013-08-18 10:15:00
5:35 AM,51.8,50.0,94,30.22,7.0,Calm,Calm,-,N/A,,Clear,0,2013-08-18 10:35:00
5:45 AM,51.8,51.8,100,30.22,10.0,Calm,Calm,-,N/A,,Clear,0,2013-08-18 10:45:00
6:45 AM,51.8,50.0,94,30.23,10.0,Calm,Calm,-,N/A,,Clear,0,2013-08-18 11:45:00
7:45 AM,57.2,55.4,94,30.24,10.0,Calm,Calm,-,N/A,,Clear,0,2013-08-18 12:45:00
8:45 AM,68.0,60.8,78,30.25,10.0,Calm,Calm,-,N/A,,Clear,0,2013-08-18 13:45:00
9:45 AM,71.6,55.4,57,30.24,10.0,Calm,Calm,-,N/A,,Clear,0,2013-08-18 14:45:00
10:45 AM,73.4,51.8,47,30.23,10.0,Calm,Calm,-,N/A,,Partly Cloudy,0,2013-08-18 15:45:00
11:45 AM,75.2,53.6,47,30.21,10.0,ESE,8.1,-,N/A,,Partly Cloudy,120,2013-08-18 16:45:00
12:45 PM,75.2,53.6,47,30.20,10.0,ESE,5.8,-,N/A,,Scattered Clouds,120,2013-08-18 17:45:00
2:45 PM,77.0,55.4,47,30.18,10.0,SSE,6.9,-,N/A,,Mostly Cloudy,150,2013-08-18 19:45:00
3:45 PM,75.2,55.4,50,30.15,10.0,SSE,6.9,-,N/A,,Mostly Cloudy,150,2013-08-18 20:45:00
4:45 PM,75.2,55.4,50,30.15,10.0,SSE,6.9,-,N/A,,Scattered Clouds,160,2013-08-18 21:45:00
5:46 PM,75.2,-9999,N/A,30.14,10.0,South,6.9,-,N/A,,Scattered Clouds,170,2013-08-18 22:46:00
6:45 PM,73.4,55.4,53,30.13,10.0,SSE,5.8,-,N/A,,Clear,150,2013-08-18 23:45:00
7:45 PM,69.8,55.4,60,30.13,10.0,SSE,5.8,-,N/A,,Clear,150,2013-08-19 00:45:00
8:45 PM,66.2,55.4,68,30.14,10.0,SSE,4.6,-,N/A,,Clear,160,2013-08-19 01:45:00
9:15 PM,64.4,53.6,68,30.14,10.0,South,3.5,-,N/A,,Clear,170,2013-08-19 02:15:00
9:35 PM,64.4,53.6,68,30.14,10.0,South,4.6,-,N/A,,Clear,180,2013-08-19 02:35:00
9:55 PM,64.4,53.6,68,30.14,10.0,South,5.8,-,N/A,,Clear,180,2013-08-19 02:55:00
10:15 PM,64.4,53.6,68,30.14,10.0,South,5.8,-,N/A,,Clear,180,2013-08-19 03:15:00
10:35 PM,62.6,53.6,72,30.14,10.0,South,5.8,-,N/A,,Clear,190,2013-08-19 03:35:00
10:55 PM,62.6,53.6,72,30.14,10.0,South,5.8,-,N/A,,Clear,190,2013-08-19 03:55:00
11:15 PM,62.6,53.6,72,30.14,10.0,South,4.6,-,N/A,,Clear,190,2013-08-19 04:15:00
11:35 PM,62.6,53.6,72,30.14,10.0,SSW,4.6,-,N/A,,Clear,200,2013-08-19 04:35:00
11:55 PM,62.6,53.6,72,30.14,10.0,SSW,3.5,-,N/A,,Clear,200,2013-08-19 04:55:00